Погода в Портленде

США     43°39′26″N   70°16′09″W
темп.,
°C
ветер,
м/с
пор.,
м/с
влажн.,
%
обл.,
%
осадки,
мм/ч
давл.,
гПа
погр.,
м
27 июля, вт
вт2723:00+20з22773 0.0 101133
02:00+18зсз23855 0.2 101060
05:00+17сз24870 0.0 101073
08:00+22сз3669100 0.0 1012215
11:00+27сз3538100 0.0 10121577
14:00+29зсз35296 0.0 10122640
17:00+24вюв1361100 0.0 1011110
20:00+18ссз41077100 0.2 1014448
28 июля, ср
ср2823:00+16ссв2599100 8.3 1015246
02:00+15с279885 9.2 1015354
05:00+13с24988 0.0 1016102
08:00+15ссв37850 0.0 1017371
11:00+20вюв23510 0.0 10171195
14:00+22юв334798 0.0 10161248
17:00+21ю44531 0.0 1015830
20:00+17ююз3768100 0.0 1016225
29 июля, чт
чт2923:00+15юз27791 0.0 1017172
02:00+13зюз12895 0.0 101649
05:00+13з1194100 0.0 101627
08:00+17юз1280100 0.0 1017293
11:00+22ю3565100 0.0 10161090
14:00+23ю575639 0.8 10141324
17:00+20ю497299 0.5 1014670
20:00+18ю31074100 0.6 1013518
30 июля, пт
пт3023:00+16ююв2899100 4.6 1013368
02:00+17ююз3799100 9.3 1010436
05:00+16ююз27100100 2.3 1009340
08:00+17юз2698100 3.7 1009287
11:00+19зсз129356 0.6 1008394
14:00+22ссз13768 2.1 1007926
17:00+21ссв3681100 1.1 1008304
20:00+17ссз398656 1.6 1010267
31 июля, сб
сб3123:00+14сз26830 0.0 1011120
02:00+12зсз22875 0.0 101139
05:00+12сз248344 0.0 1012105
08:00+16зсз25665 0.0 1013285
11:00+21юз234449 0.0 10121715
14:00+23ю343939 0.0 10112128
17:00+20ююв575051 0.0 1012480
20:00+17ююз387141 0.0 1012263